Oakdale, LA

11:56 PM CDT on August 30, 2016 (GMT -0500)
Oakdale

Weather History for KACP - September, 2013

Change the Weather History Date:

Wednesday, September 4, 2013

  Actual Average (KPOE) Record (KPOE)
Temperature  
Mean Temperature 82 °F -  
Max Temperature 96 °F 87 °F 105 °F (2000)
Min Temperature 67 °F 69 °F 64 °F (2006)
Cooling Degree Days 16    
Growing Degree Days 32 (Base 50)    
Moisture  
Dew Point 71 °F    
Average Humidity 75    
Maximum Humidity 96    
Minimum Humidity 39    
Precipitation  
Precipitation 0.00 in - - ()
Sea Level Pressure  
Sea Level Pressure 30.00 in    
Wind  
Wind Speed 1 mph (ESE)    
Max Wind Speed 12 mph    
Max Gust Speed 16 mph    
Visibility 8 miles    
Events      
Averages and records for this station are not official NWS values.
T = Trace of Precipitation, MM = Missing Value Source: NWS Daily Summary

Daily Weather History Graph

Daily Weather History Graph

Search for Another Location

Airport or City:

Trip Planner

Search our weather history database for the weather conditions in past years. The results will help you decide how hot, cold, wet, or windy it might be!

Date:

Astronomy

Sep. 04, 2013 Rise Set
Actual Time 6:49 AM CDT 7:29 PM CDT
Civil Twilight 6:24 AM CDT 7:54 PM CDT
Nautical Twilight 5:55 AM CDT 8:22 PM CDT
Astronomical Twilight 5:26 AM CDT 8:52 PM CDT
Moon 6:01 AM CDT (9/4) 6:52 PM CDT (9/4)
Length of Visible Light 13h 29m
Length of Day
12h 40m
Waning Crescent, 1% of the Moon is Illuminated
Sep 4
Waning Crescent
Sep 5
New
Sep 12
First Quarter
Sep 19
Full
Sep 26
Last Quarter

Hourly Weather History & Observations

Time (CDT) Temp. Heat Index Dew Point Humidity Pressure Visibility Wind Dir Wind Speed Gust Speed Precip Events Conditions
12:15 AM 71.1 °F - 69.8 °F 96% 29.95 in 3.0 mi Calm Calm - N/A   Clear
12:35 AM 70.7 °F - 69.3 °F 95% 29.96 in 5.0 mi Calm Calm - N/A   Clear
12:55 AM 70.3 °F - 69.1 °F 96% 29.96 in 5.0 mi Calm Calm - N/A   Clear
1:15 AM 69.4 °F - 68.2 °F 96% 29.97 in 2.0 mi Calm Calm - N/A   Clear
1:35 AM 71.6 °F - 70.3 °F 96% 29.96 in 7.0 mi Calm Calm - N/A   Clear
1:55 AM 71.2 °F - 70.0 °F 96% 29.96 in 5.0 mi Calm Calm - N/A   Clear
2:15 AM 71.2 °F - 70.0 °F 96% 29.96 in 5.0 mi Calm Calm - N/A   Clear
2:35 AM 70.0 °F - 68.7 °F 96% 29.96 in 4.0 mi Calm Calm - N/A   Clear
2:55 AM 69.1 °F - 67.8 °F 96% 29.96 in 2.0 mi Calm Calm - N/A   Clear
3:15 AM 70.2 °F - 69.1 °F 96% 29.96 in 5.0 mi Calm Calm - N/A   Clear
3:35 AM 69.8 °F - 68.5 °F 96% 29.96 in 7.0 mi Calm Calm - N/A   Clear
3:55 AM 69.1 °F - 67.8 °F 96% 29.96 in 3.0 mi Calm Calm - N/A   Clear
4:15 AM 68.5 °F - 67.5 °F 96% 29.97 in 4.0 mi Calm Calm - N/A   Clear
4:35 AM 68.2 °F - 66.7 °F 95% 29.97 in 5.0 mi Calm Calm - N/A   Clear
4:55 AM 68.0 °F - 66.7 °F 96% 29.97 in 5.0 mi Calm Calm - N/A   Clear
5:15 AM 67.8 °F - 66.4 °F 95% 29.98 in 4.0 mi Calm Calm - N/A   Clear
5:35 AM 67.6 °F - 66.4 °F 96% 29.98 in 5.0 mi Calm Calm - N/A   Clear
5:55 AM 67.5 °F - 66.2 °F 96% 29.99 in 4.0 mi Calm Calm - N/A   Clear
6:15 AM 67.1 °F - 65.7 °F 95% 29.99 in 7.0 mi Calm Calm - N/A   Clear
6:35 AM 67.3 °F - 66.2 °F 96% 29.99 in 4.0 mi Calm Calm - N/A   Clear
6:55 AM 67.5 °F - 66.2 °F 96% 30.00 in 5.0 mi Calm Calm - N/A   Clear
7:15 AM 68.0 °F - 66.6 °F 95% 30.00 in 3.0 mi Calm Calm - N/A   Clear
7:35 AM 69.6 °F - 68.2 °F 95% 30.02 in 10.0 mi Calm Calm - N/A   Clear
7:55 AM 72.1 °F - 70.7 °F 95% 30.02 in 5.0 mi Calm Calm - N/A   Clear
8:15 AM 73.8 °F - 71.4 °F 92% 30.03 in 10.0 mi Calm Calm - N/A   Clear
8:35 AM 76.8 °F - 73.0 °F 88% 30.03 in 10.0 mi Calm Calm - N/A   Clear
8:55 AM 80.1 °F 84.5 °F 73.6 °F 81% 30.04 in 10.0 mi Calm Calm - N/A   Clear
9:15 AM 82.6 °F 88.1 °F 72.9 °F 72% 30.05 in 10.0 mi Calm Calm - N/A   Clear
9:35 AM 84.7 °F 92.5 °F 74.3 °F 71% 30.05 in 10.0 mi WNW 6.9 mph - N/A   Clear
9:55 AM 86.0 °F 93.8 °F 73.8 °F 67% 30.06 in 10.0 mi West 3.5 mph - N/A   Clear
10:15 AM 87.1 °F 94.1 °F 72.9 °F 62% 30.06 in 10.0 mi WNW 5.8 mph - N/A   Clear
10:35 AM 87.4 °F 94.4 °F 72.3 °F 61% 30.05 in 10.0 mi Calm Calm - N/A   Clear
10:55 AM 89.1 °F 96.0 °F 71.8 °F 57% 30.05 in 10.0 mi NNW 4.6 mph - N/A   Clear
11:15 AM 89.4 °F 96.3 °F 71.6 °F 56% 30.05 in 10.0 mi Calm Calm - N/A   Clear
11:35 AM 91.8 °F 99.7 °F 72.3 °F 53% 30.05 in 10.0 mi ENE 5.8 mph - N/A   Scattered Clouds
11:55 AM 91.9 °F 98.4 °F 71.1 °F 50% 30.04 in 10.0 mi NE 3.5 mph - N/A   Mostly Cloudy
12:15 PM 92.8 °F 99.7 °F 71.1 °F 49% 30.04 in 10.0 mi NE 5.8 mph - N/A   Scattered Clouds
12:35 PM 93.9 °F 102.1 °F 72.1 °F 49% 30.03 in 10.0 mi NNE 5.8 mph - N/A   Clear
12:55 PM 92.7 °F 98.8 °F 70.3 °F 48% 30.03 in 10.0 mi Calm Calm - N/A   Clear
1:15 PM 93.9 °F 101.5 °F 71.2 °F 48% 30.02 in 10.0 mi East 4.6 mph - N/A   Clear
1:35 PM 93.6 °F 100.7 °F 71.2 °F 48% 30.01 in 10.0 mi NE 4.6 mph - N/A   Clear
1:55 PM 92.5 °F 100.1 °F 71.8 °F 51% 30.00 in 10.0 mi East 5.8 mph - N/A   Clear
2:15 PM 94.5 °F 101.4 °F 70.5 °F 46% 29.99 in 10.0 mi SSE 4.6 mph - N/A   Clear
2:35 PM 96.4 °F 103.0 °F 69.8 °F 42% 29.99 in 10.0 mi East 5.8 mph - N/A   Scattered Clouds
2:55 PM 96.4 °F 104.3 °F 71.1 °F 44% 29.98 in 10.0 mi NE 8.1 mph - N/A   Scattered Clouds
3:15 PM 95.7 °F 102.1 °F 69.8 °F 43% 29.97 in 10.0 mi East 4.6 mph - N/A   Scattered Clouds
3:35 PM 96.1 °F 102.9 °F 70.0 °F 43% 29.96 in 10.0 mi East 6.9 mph - N/A   Clear
3:55 PM 95.7 °F 101.5 °F 69.3 °F 42% 29.96 in 10.0 mi East 6.9 mph - N/A   Clear
4:15 PM 94.5 °F 100.2 °F 69.6 °F 44% 29.97 in 10.0 mi ESE 6.9 mph - N/A   Scattered Clouds
4:35 PM 94.6 °F 100.0 °F 69.1 °F 43% 29.96 in 10.0 mi ESE 5.8 mph - N/A   Scattered Clouds
4:55 PM 95.0 °F 100.1 °F 68.4 °F 42% 29.96 in 10.0 mi ESE 8.1 mph - N/A   Mostly Cloudy
5:15 PM 95.7 °F 99.8 °F 67.5 °F 39% 29.95 in 10.0 mi ESE 4.6 mph - N/A   Scattered Clouds
5:35 PM 91.2 °F 99.1 °F 72.5 °F 54% 29.96 in 10.0 mi South 11.5 mph 16.1 mph N/A   Mostly Cloudy
5:55 PM 88.2 °F 96.0 °F 73.4 °F 61% 29.96 in 10.0 mi South 4.6 mph - N/A   Scattered Clouds
6:15 PM 88.7 °F 96.2 °F 72.5 °F 59% 29.97 in 10.0 mi South 6.9 mph - N/A   Clear
6:35 PM 88.0 °F 96.0 °F 73.4 °F 62% 29.98 in 10.0 mi SSW 3.5 mph - N/A   Scattered Clouds
6:55 PM 86.5 °F 94.2 °F 73.6 °F 65% 29.99 in 10.0 mi South 4.6 mph - N/A   Scattered Clouds
7:15 PM 85.1 °F 92.6 °F 73.8 °F 69% 29.99 in 10.0 mi South 3.5 mph - N/A   Scattered Clouds
7:35 PM 83.7 °F 90.4 °F 73.6 °F 72% 30.00 in 10.0 mi Calm Calm - N/A   Clear
7:55 PM 82.6 °F 88.6 °F 73.4 °F 74% 30.01 in 10.0 mi ESE 4.6 mph - N/A   Scattered Clouds
8:15 PM 82.2 °F 88.0 °F 73.4 °F 75% 30.02 in 10.0 mi Calm Calm - N/A   Scattered Clouds
8:35 PM 81.3 °F 86.5 °F 73.4 °F 77% 30.02 in 10.0 mi Calm Calm - N/A   Scattered Clouds
8:55 PM 79.0 °F - 73.0 °F 82% 30.03 in 10.0 mi Calm Calm - N/A   Clear
9:15 PM 79.2 °F - 73.4 °F 82% 30.03 in 10.0 mi Calm Calm - N/A   Clear
9:35 PM 77.9 °F - 73.4 °F 86% 30.04 in 10.0 mi Calm Calm - N/A   Mostly Cloudy
9:55 PM 77.5 °F - 73.4 °F 87% 30.04 in 10.0 mi Calm Calm - N/A   Scattered Clouds
10:15 PM 77.9 °F - 72.9 °F 84% 30.04 in 10.0 mi Calm Calm - N/A   Scattered Clouds
10:35 PM 75.9 °F - 72.7 °F 90% 30.04 in 10.0 mi Calm Calm - N/A   Clear
10:55 PM 76.1 °F - 72.5 °F 89% 30.05 in 10.0 mi Calm Calm - N/A   Clear
11:15 PM 75.2 °F - 72.3 °F 91% 30.04 in 10.0 mi Calm Calm - N/A   Clear
11:35 PM 73.8 °F - 71.6 °F 93% 30.04 in 10.0 mi Calm Calm - N/A   Clear
11:55 PM 74.3 °F - 72.0 °F 92% 30.04 in 10.0 mi SE 3.5 mph - N/A   Clear